TimeEST,TemperatureF,Dew PointF,Humidity,Sea Level PressureIn,VisibilityMPH,Wind Direction,Wind SpeedMPH,Gust SpeedMPH,PrecipitationIn,Events,Conditions,WindDirDegrees,DateUTC
12:53 AM,46.0,43.0,89,29.94,7.0,Calm,Calm,-,0.01,Rain,Light Rain,0,2013-01-02 05:53:00
1:16 AM,44.6,42.8,93,29.95,7.0,North,5.8,-,0.01,Rain,Light Rain,10,2013-01-02 06:16:00
1:25 AM,44.6,42.8,93,29.94,7.0,NNE,5.8,-,0.01,Rain,Light Rain,20,2013-01-02 06:25:00
1:53 AM,45.0,41.0,86,29.94,10.0,NE,6.9,-,0.02,Rain,Light Rain,40,2013-01-02 06:53:00
2:07 AM,44.6,41.0,87,29.96,10.0,NNE,5.8,-,0.00,Rain,Light Rain,20,2013-01-02 07:07:00
2:53 AM,44.1,39.9,85,29.95,10.0,NNE,6.9,-,0.02,,Overcast,20,2013-01-02 07:53:00
4:53 AM,42.1,39.0,89,29.97,8.0,NE,4.6,-,0.02,,Overcast,40,2013-01-02 09:53:00
5:05 AM,42.8,39.2,87,29.99,10.0,NNE,3.5,-,N/A,,Overcast,20,2013-01-02 10:05:00
5:53 AM,42.1,39.0,89,29.99,10.0,Calm,Calm,-,0.02,,Overcast,0,2013-01-02 10:53:00
6:43 AM,41.0,39.2,93,30.01,10.0,Calm,Calm,-,0.01,,Overcast,0,2013-01-02 11:43:00
6:53 AM,42.1,39.0,89,30.01,10.0,Calm,Calm,-,0.01,,Overcast,0,2013-01-02 11:53:00
7:04 AM,42.8,39.2,87,30.02,10.0,NNW,3.5,-,0.01,,Overcast,340,2013-01-02 12:04:00
7:53 AM,42.1,37.9,85,30.04,10.0,North,4.6,-,0.02,,Overcast,360,2013-01-02 12:53:00
8:00 AM,42.8,37.4,81,30.05,10.0,North,4.6,-,N/A,,Overcast,360,2013-01-02 13:00:00
8:14 AM,42.8,39.2,87,30.06,10.0,North,4.6,-,0.01,,Overcast,10,2013-01-02 13:14:00
8:35 AM,42.8,37.4,81,30.08,10.0,NNE,8.1,-,0.01,,Overcast,20,2013-01-02 13:35:00
8:53 AM,42.1,37.9,85,30.07,10.0,NNE,6.9,-,0.02,,Overcast,30,2013-01-02 13:53:00
9:05 AM,41.0,37.4,87,30.09,10.0,NE,9.2,-,N/A,,Overcast,50,2013-01-02 14:05:00
10:22 AM,41.0,37.4,87,30.10,10.0,ENE,5.8,-,0.01,,Scattered Clouds,60,2013-01-02 15:22:00
10:53 AM,41.0,37.0,86,30.10,10.0,NE,4.6,-,0.01,,Scattered Clouds,40,2013-01-02 15:53:00
11:40 AM,44.6,35.6,71,30.10,10.0,ENE,3.5,-,0.02,,Mostly Cloudy,70,2013-01-02 16:40:00
11:53 AM,44.1,35.1,71,30.09,10.0,North,5.8,-,0.02,,Mostly Cloudy,360,2013-01-02 16:53:00
12:33 PM,46.4,33.8,62,30.07,10.0,Variable,3.5,-,0.01,,Overcast,0,2013-01-02 17:33:00
12:53 PM,48.0,33.1,56,30.06,10.0,North,8.1,-,0.02,,Mostly Cloudy,350,2013-01-02 17:53:00
1:53 PM,46.9,30.9,54,30.05,10.0,NW,6.9,-,0.01,,Mostly Cloudy,310,2013-01-02 18:53:00
2:53 PM,48.0,32.0,54,30.06,10.0,Variable,3.5,-,0.01,,Overcast,0,2013-01-02 19:53:00
3:53 PM,46.0,30.0,54,30.08,10.0,NNE,4.6,-,0.01,,Partly Cloudy,30,2013-01-02 20:53:00
4:53 PM,45.0,28.0,52,30.10,10.0,NNE,6.9,-,0.01,,Clear,20,2013-01-02 21:53:00
5:53 PM,42.1,28.0,58,30.11,10.0,NNE,4.6,-,0.01,,Clear,20,2013-01-02 22:53:00
6:53 PM,39.9,30.9,70,30.13,10.0,Calm,Calm,-,0.01,,Clear,0,2013-01-02 23:53:00
7:53 PM,39.0,30.9,73,30.16,10.0,Calm,Calm,-,N/A,,Clear,0,2013-01-03 00:53:00
8:53 PM,37.9,30.9,76,30.14,10.0,Calm,Calm,-,0.01,,Clear,0,2013-01-03 01:53:00
9:53 PM,37.0,30.9,79,30.17,10.0,Calm,Calm,-,N/A,,Clear,0,2013-01-03 02:53:00
10:53 PM,36.0,32.0,86,30.17,10.0,Calm,Calm,-,N/A,,Clear,0,2013-01-03 03:53:00
11:53 PM,37.0,32.0,82,30.17,10.0,Calm,Calm,-,N/A,,Overcast,0,2013-01-03 04:53:00